This demonstration page uses our WeatherBlox Daily Observations layout. Learn more.

Left ArrowRight Arrow

41.86663, -103.66717

Hourly Observations for August 20, 2022

Temp ( °F °C ) Dew Point ( °F °C ) Humidity (%) Winds ( mph kmh ) Pressure ( in mb ) Visibility ( mi km ) Precip ( " mm )
12:53 am 00:53 Clear 57 13.9 48 8.9 72 72 NE 3 6 30.03 1017 10 16 0.00 0.00
1:53 am 01:53 Clear 58 14.4 46 7.8 65 65 Calm 30.03 1017 10 16 0.00 0.00
2:53 am 02:53 Clear 56 13.3 47 8.3 72 72 Calm 30.04 1017 10 16 0.00 0.00
3:53 am 03:53 Clear 54 12.2 46 7.8 74 74 Calm 30.04 1017 10 16 0.00 0.00
4:53 am 04:53 Mostly Clear 52 11.1 46 7.8 80 80 Calm 30.04 1017 10 16 0.00 0.00
5:53 am 05:53 Clear 52 11.1 46 7.8 80 80 Calm 30.06 1018 10 16 0.00 0.00
6:53 am 06:53 Sunny 55 12.8 48 8.9 77 77 ENE 3 6 30.08 1019 10 16 0.00 0.00
7:53 am 07:53 Sunny 61 16.1 50 10 67 67 ESE 6 9 30.09 1019 10 16 0.00 0.00
8:53 am 08:53 Sunny 66 18.9 50 10 56 56 E 6 9 30.09 1019 10 16 0.00 0.00
9:53 am 09:53 Sunny 72 22.2 50 10 46 46 ESE 10 17 30.09 1019 10 16 0.00 0.00
10:53 am 10:53 Sunny 77 25 50 10 39 39 ESE 12 19 30.07 1018 10 16 0.00 0.00
11:53 am 11:53 Sunny 81 27.2 49 9.4 33 33 E 13 20 30.04 1017 10 16 0.00 0.00
12:53 pm 12:53 Sunny 82 27.8 50 10 33 33 E 14 22 30.02 1017 10 16 0.00 0.00
1:53 pm 13:53 Sunny 83 28.3 50 10 32 32 E 16 26 30.00 1016 10 16 0.00 0.00
2:53 pm 14:53 Sunny 86 30 51 10.6 30 30 E 17 28 29.97 1015 10 16 0.00 0.00
3:53 pm 15:53 Sunny 87 30.6 50 10 28 28 E 16 26 29.96 1015 10 16 0.00 0.00
4:53 pm 16:53 Sunny 86 30 51 10.6 30 30 E 15 24 29.96 1015 10 16 0.00 0.00
5:53 pm 17:53 Sunny 86 30 48 8.9 27 27 ESE 15 24 29.95 1014 10 16 0.00 0.00
6:53 pm 18:53 Sunny 78 25.6 53 11.7 42 42 E 9 15 29.96 1015 10 16 0.00 0.00
7:53 pm 19:53 Clear 72 22.2 53 11.7 51 51 E 7 11 29.98 1015 10 16 0.00 0.00
8:53 pm 20:53 Clear 69 20.6 52 11.1 54 54 E 9 15 29.98 1015 10 16 0.00 0.00
9:53 pm 21:53 Mostly Cloudy 70 21.1 51 10.6 51 51 E 9 15 29.99 1016 10 16 0.00 0.00
10:53 pm 22:53 Mostly Cloudy 69 20.6 51 10.6 53 53 ESE 10 17 29.99 1016 10 16 0.00 0.00
11:53 pm 23:53 Mostly Clear 67 19.4 51 10.6 57 57 ESE 10 17 29.99 1016 10 16 0.00 0.00

Powered by AerisWeather